STARLINK-32650, 62231

Orbit data source: Space-Track

STARLINK-32650, 62231 is a payload satellite owned by SpaceX/Seattle (US) in LEO that was launched on Thu, 05 Dec 2024 UTC via an FALCON 9 launch vehicle from the Air Force Western Test Range (AFWTR). Payloads include a variety of satellites, spacecraft, and rockets equipped with specific instruments for various scientific and technological missions. These include communications satellites like Starlink; space stations such as the ISS; scientific satellites like the Hubble; Earth observation satellites from companies like Planet Labs, Umbra, and HawkEye 360; GPS; miniature CubeSats for education and research; and military/defense satellites.

Loading next visibility...
STARLINK-32650 details
Identifier
62231, 2024-231P
Orbit
LEO
Last TLE update17 hours ago
Origin
Flag of USSpaceX/Seattle (US)
ManufacturerSpaceX/Seattle
MissionOperational spacecraft
Bus & MotorSTARLINK V2M, Unknown motor
Mass730 kg wet, ~700 kg dry
Launch date (UTC)
2024-12-05 (2 months ago)
Launch vehicle
FALCON 9
Launch site
Air Force Western Test Range (AFWTR)
Object type
Payload
Rocket body
Debris
Shape & HBRUnknown
Radar Cross SectionLarge (>1 m²)

Expand to show TLE details & history

TLE from 17 hours ago
0 STARLINK-32650
1 62231U 24231P   25025.10970495  .00002371  00000-0  69245-4 0  9998
2 62231  53.1595 322.3701 0000690  99.4298 260.6785 15.39608152  9146
Epoch: 2025-01-25T02:37Z
Definitive object data (Epoch: 2025-01-25T02:37:58.507Z)
Latitude-0.00002°
Longitude158.21307°
Altitude448.247 km
Speed7.644 km/s
True Right ascension21h 29m 28s
True Declination0° 00' 00"
Sunlit
Object was in daylight at TLE epoch
Visualization TLE readout
Latitude-22.87155°
Longitude136.55453°
Altitude454.083 km
Speed7.64 km/s
Apparent Right ascension17h 31m 33s
Apparent Declination-73° 42' 31"
Sunlit
Object is in daylight
Visualization observer readout
Local Sidereal Time20:59:41
Azimuth194.635° SSW
Elevation-28.917°
Doppler factor1
Orbital elements
Apogee altitude447.996 km
Perigee altitude447.054 km
Semi-major axis6,825.662 km
Eccentricity0.000069
Inclination53.1595°
RAAN322.3701°
Arg. of periapsis99.4298°
True anomaly260.6707°
Mean anomaly260.6785°
Eccentric anomaly260.6746°
Mean motion3.84881 °/min
BSTAR0.000069245
Orbital period93.54 mins
Loading maneuver chart data...
Loading historical data...
Loading historical data...
Loading historical data...
Loading historical data...
Loading historical data...
Loading historical data...
Loading historical data...

STARLINK-32650 Visibility forecast

Observer location: undefined°, undefined

Span
Click to sort rows by Start time (UTC) header in descending order
Start Az.
Max El. time (UTC)
Max El. Az.
Max El.
End time (UTC)
End Az.
5 mins2025-01-25 21:28:43.300Z184.997° SSW2025-01-25 21:31:43.300Z124.466° SE21.883°2025-01-25 21:33:43.300Z82.591° E
5 mins2025-01-25 23:06:43.300Z269.351° W2025-01-25 23:08:43.300Z329.82° NNW31.296°2025-01-25 23:11:43.300Z35.303° NE
4 mins2025-01-26 04:01:43.300Z342.565° N2025-01-26 04:03:43.300Z29.771° NE22.792°2025-01-26 04:05:43.300Z75.459° E
4 mins2025-01-26 05:39:43.300Z278.203° WNW2025-01-26 05:40:43.300Z244.603° WSW33.658°2025-01-26 05:43:43.300Z156.839° SSE
|